Track STARLINK-32244 now! 10-day predictions STARLINK-32244 is classified as:
1 60411U 24141P 24325.86991846 .00003188 00000-0 11982-3 0 9995 2 60411 53.1613 283.6487 0001316 107.3970 252.7174 15.30168860 17025